• In Deutschland
  • Länderverzeichnis
  • Für 7 Tage
  • Wassertemperatur
  • Satellitenkarten
  • Wetterkarte
  • Widgets
  • user-avatar
    Anmelden

    Stündliche Wetter Dresden

    Heute, 16 Januar, Dienstag

    Zeit Temperatur Niederschläge Wind Luftdruck Luftfeuchtigkeit
    00:00 -3°C° 0,1 mm 9 m/S 740 mmHg 71%
    01:00 -3°C° 0 mm 9 m/S 739 mmHg 74%
    02:00 -3°C° 0,5 mm 9 m/S 738 mmHg 76%
    03:00 -2°C° 0,5 mm 10 m/S 737 mmHg 77%
    04:00 -2°C° 0,5 mm 10 m/S 736 mmHg 79%
    05:00 0°C° 0,6 mm 9 m/S 736 mmHg 79%
    06:00 0°C° 0,6 mm 8 m/S 735 mmHg 80%
    07:00 +2°C° 0,6 mm 7 m/S 734 mmHg 80%
    08:00 +2°C° 0,8 mm 7 m/S 734 mmHg 82%
    09:00 +2°C° 0,8 mm 7 m/S 734 mmHg 83%
    10:00 +2°C° 0,8 mm 6 m/S 733 mmHg 84%
    11:00 +3°C° 0,4 mm 5 m/S 733 mmHg 83%
    12:00 +5°C° 0,4 mm 5 m/S 732 mmHg 82%
    13:00 +6°C° 0,4 mm 4 m/S 731 mmHg 81%
    14:00 +5°C° 1 mm 5 m/S 731 mmHg 81%
    15:00 +3°C° 1 mm 5 m/S 731 mmHg 81%
    16:00 +3°C° 1 mm 6 m/S 731 mmHg 81%
    17:00 +2°C° 0,1 mm 6 m/S 731 mmHg 78%
    18:00 0°C° 0,1 mm 7 m/S 731 mmHg 76%
    19:00 0°C° 0,1 mm 7 m/S 732 mmHg 73%
    20:00 -1°C° 0 mm 7 m/S 732 mmHg 74%
    21:00 -1°C° 0 mm 6 m/S 733 mmHg 74%
    22:00 -2°C° 0 mm 6 m/S 733 mmHg 75%
    23:00 -1°C° 0 mm 5 m/S 733 mmHg 77%

    Morgen, 17 Januar, Mittwoch

    Zeit Temperatur Niederschläge Wind Luftdruck Luftfeuchtigkeit
    00:00 -1°C° 0 mm 5 m/S 733 mmHg 79%
    01:00 -1°C° 0 mm 4 m/S 733 mmHg 81%
    02:00 -1°C° 0 mm 4 m/S 733 mmHg 82%
    03:00 -1°C° 0 mm 4 m/S 732 mmHg 83%
    04:00 -1°C° 0 mm 4 m/S 732 mmHg 83%
    05:00 -1°C° 0,1 mm 5 m/S 732 mmHg 83%
    06:00 -1°C° 0,1 mm 5 m/S 732 mmHg 83%
    07:00 -1°C° 0,1 mm 5 m/S 732 mmHg 83%
    08:00 -2°C° 0,1 mm 6 m/S 733 mmHg 79%
    09:00 -2°C° 0,1 mm 6 m/S 733 mmHg 76%
    10:00 -2°C° 0,1 mm 7 m/S 734 mmHg 73%
    11:00 -2°C° 0,1 mm 7 m/S 734 mmHg 71%
    12:00 -1°C° 0,1 mm 8 m/S 735 mmHg 70%
    13:00 -1°C° 0,1 mm 9 m/S 735 mmHg 69%
    14:00 -2°C° 0 mm 8 m/S 736 mmHg 68%
    15:00 -2°C° 0 mm 7 m/S 736 mmHg 68%
    16:00 -2°C° 0 mm 6 m/S 737 mmHg 68%
    17:00 -2°C° 0,1 mm 6 m/S 737 mmHg 72%
    18:00 -2°C° 0,1 mm 7 m/S 737 mmHg 75%
    19:00 -2°C° 0,1 mm 7 m/S 737 mmHg 79%
    20:00 -2°C° 0,2 mm 8 m/S 737 mmHg 78%
    21:00 -2°C° 0,2 mm 8 m/S 738 mmHg 76%
    22:00 -2°C° 0,2 mm 8 m/S 738 mmHg 75%
    23:00 -2°C° 0 mm 8 m/S 739 mmHg 77%

    übermorgen, 18 Januar, Donnerstag

    Zeit Temperatur Niederschläge Wind Luftdruck Luftfeuchtigkeit
    00:00 -2°C° 0 mm 7 m/S 739 mmHg 79%
    01:00 -3°C° 0 mm 7 m/S 740 mmHg 81%
    02:00 -3°C° 0,1 mm 6 m/S 741 mmHg 83%
    03:00 -3°C° 0,1 mm 6 m/S 741 mmHg 84%
    04:00 -2°C° 0,1 mm 6 m/S 742 mmHg 86%
    05:00 -1°C° 0,1 mm 5 m/S 741 mmHg 85%
    06:00 -1°C° 0,1 mm 5 m/S 741 mmHg 84%
    07:00 -1°C° 0,1 mm 5 m/S 740 mmHg 83%
    08:00 -1°C° 0,9 mm 5 m/S 738 mmHg 85%
    09:00 -2°C° 0,9 mm 6 m/S 737 mmHg 87%
    10:00 -1°C° 0,9 mm 7 m/S 735 mmHg 89%
    11:00 0°C° 0,9 mm 7 m/S 734 mmHg 88%
    12:00 +3°C° 0,9 mm 7 m/S 733 mmHg 87%
    13:00 +4°C° 0,9 mm 8 m/S 732 mmHg 87%
    14:00 +4°C° 0,2 mm 8 m/S 731 mmHg 84%
    15:00 +4°C° 0,2 mm 8 m/S 730 mmHg 81%
    16:00 +3°C° 0,2 mm 9 m/S 730 mmHg 78%
    17:00 +2°C° 0 mm 10 m/S 731 mmHg 76%
    18:00 +1°C° 0 mm 11 m/S 731 mmHg 74%
    19:00 -1°C° 0 mm 12 m/S 732 mmHg 73%
    20:00 -1°C° 0 mm 11 m/S 733 mmHg 75%
    21:00 -1°C° 0 mm 9 m/S 734 mmHg 77%
    22:00 -2°C° 0 mm 8 m/S 736 mmHg 79%
    23:00 -2°C° 0 mm 7 m/S 736 mmHg 83%

    19 Januar, Freitag

    Zeit Temperatur Niederschläge Wind Luftdruck Luftfeuchtigkeit
    00:00 -1°C° 0 mm 5 m/S 737 mmHg 86%
    01:00 -2°C° 0 mm 4 m/S 737 mmHg 89%
    02:00 -1°C° 0,2 mm 3 m/S 737 mmHg 90%
    03:00 -1°C° 0,2 mm 2 m/S 737 mmHg 92%
    04:00 -1°C° 0,2 mm 2 m/S 737 mmHg 94%
    05:00 +2°C° 0,2 mm 1 m/S 737 mmHg 94%
    06:00 +2°C° 0,2 mm 1 m/S 737 mmHg 94%
    07:00 +2°C° 0,2 mm 1 m/S 737 mmHg 94%
    08:00 +2°C° 0,3 mm 1 m/S 738 mmHg 94%
    09:00 +2°C° 0,3 mm 1 m/S 738 mmHg 94%
    10:00 +3°C° 0,3 mm 1 m/S 739 mmHg 93%
    11:00 +2°C° 0,4 mm 2 m/S 739 mmHg 93%
    12:00 +1°C° 0,4 mm 3 m/S 740 mmHg 92%
    13:00 +1°C° 0,4 mm 3 m/S 740 mmHg 92%
    14:00 +1°C° 0,2 mm 3 m/S 741 mmHg 91%
    15:00 +1°C° 0,2 mm 3 m/S 741 mmHg 90%
    16:00 0°C° 0,2 mm 3 m/S 741 mmHg 89%
    17:00 0°C° 0 mm 3 m/S 742 mmHg 89%
    18:00 -1°C° 0 mm 3 m/S 742 mmHg 89%
    19:00 -2°C° 0 mm 3 m/S 742 mmHg 89%
    20:00 -2°C° 0 mm 3 m/S 742 mmHg 88%
    21:00 -2°C° 0 mm 2 m/S 742 mmHg 88%
    22:00 -3°C° 0 mm 2 m/S 742 mmHg 88%
    23:00 -3°C° 0 mm 2 m/S 742 mmHg 88%

    20 Januar, Samstag

    Zeit Temperatur Niederschläge Wind Luftdruck Luftfeuchtigkeit
    00:00 -3°C° 0 mm 2 m/S 742 mmHg 88%
    01:00 -3°C° 0 mm 2 m/S 742 mmHg 88%
    02:00 -2°C° 0,1 mm 2 m/S 742 mmHg 89%
    03:00 -2°C° 0,1 mm 3 m/S 741 mmHg 90%
    04:00 -2°C° 0,1 mm 3 m/S 741 mmHg 91%
    05:00 -1°C° 0,3 mm 3 m/S 741 mmHg 92%
    06:00 -1°C° 0,3 mm 2 m/S 741 mmHg 92%
    07:00 -1°C° 0,3 mm 2 m/S 741 mmHg 93%
    08:00 -1°C° 0,1 mm 2 m/S 742 mmHg 92%
    09:00 -1°C° 0,1 mm 2 m/S 742 mmHg 92%
    10:00 -1°C° 0,1 mm 2 m/S 742 mmHg 92%
    11:00 +1°C° 0,1 mm 2 m/S 742 mmHg 92%
    12:00 +1°C° 0,1 mm 2 m/S 743 mmHg 91%
    13:00 +1°C° 0,1 mm 2 m/S 743 mmHg 91%
    14:00 +1°C° 0 mm 2 m/S 743 mmHg 91%
    15:00 +1°C° 0 mm 1 m/S 743 mmHg 91%
    16:00 +1°C° 0 mm 1 m/S 744 mmHg 92%
    17:00 0°C° 0 mm 1 m/S 744 mmHg 92%
    18:00 -1°C° 0 mm 1 m/S 745 mmHg 91%
    19:00 -2°C° 0 mm 1 m/S 745 mmHg 91%
    20:00 -2°C° 0 mm 1 m/S 746 mmHg 91%
    21:00 -4°C° 0 mm 2 m/S 746 mmHg 92%
    22:00 -4°C° 0 mm 2 m/S 746 mmHg 92%
    23:00 -4°C° 0 mm 2 m/S 746 mmHg 92%

    21 Januar, Sonntag

    Zeit Temperatur Niederschläge Wind Luftdruck Luftfeuchtigkeit
    00:00 -2°C° 0 mm 1 m/S 747 mmHg 92%
    01:00 -2°C° 0 mm 1 m/S 747 mmHg 93%
    02:00 -2°C° 0 mm 1 m/S 747 mmHg 93%
    03:00 -2°C° 0 mm 1 m/S 747 mmHg 93%
    04:00 -2°C° 0 mm 1 m/S 747 mmHg 93%
    05:00 -2°C° 0 mm 1 m/S 747 mmHg 93%
    06:00 -2°C° 0 mm 1 m/S 747 mmHg 93%
    07:00 -2°C° 0 mm 1 m/S 748 mmHg 93%
    08:00 -1°C° 0 mm 1 m/S 748 mmHg 92%
    09:00 -2°C° 0 mm 2 m/S 748 mmHg 92%
    10:00 -2°C° 0 mm 2 m/S 748 mmHg 91%
    11:00 -1°C° 0 mm 2 m/S 749 mmHg 90%
    12:00 -1°C° 0 mm 3 m/S 749 mmHg 89%
    13:00 0°C° 0 mm 3 m/S 749 mmHg 88%
    14:00 -1°C° 0,1 mm 3 m/S 749 mmHg 88%
    15:00 -1°C° 0,1 mm 3 m/S 749 mmHg 89%
    16:00 -1°C° 0,1 mm 3 m/S 749 mmHg 89%
    17:00 -1°C° 0,1 mm 3 m/S 750 mmHg 90%
    18:00 -1°C° 0,1 mm 3 m/S 750 mmHg 91%
    19:00 -2°C° 0,1 mm 3 m/S 751 mmHg 92%
    20:00 -2°C° 0,1 mm 3 m/S 751 mmHg 92%
    21:00 -2°C° 0,1 mm 3 m/S 752 mmHg 93%
    22:00 -4°C° 0,1 mm 3 m/S 752 mmHg 94%
    23:00 -4°C° 0 mm 3 m/S 752 mmHg 93%
    Mehr zeigen